Time,TemperatureF,DewpointF,PressureIn,WindDirection,WindDirectionDegrees,WindSpeedMPH,WindSpeedGustMPH,Humidity,HourlyPrecipIn,Conditions,Clouds,dailyrainin,SoftwareType,DateUTC
2013-08-19 00:01:00,61.3,59.6,30.08,SSE,158,0.0,0.0,94,0.00,,,0.00,WeatherDisplay:10.37,2013-08-19 05:01:00,
2013-08-19 00:06:00,61.2,59.2,30.08,SSE,158,0.0,0.0,93,0.00,,,0.00,WeatherDisplay:10.37,2013-08-19 05:06:00,
2013-08-19 00:11:00,61.2,59.2,30.08,SSE,158,0.0,0.0,93,0.00,,,0.00,WeatherDisplay:10.37,2013-08-19 05:11:00,
2013-08-19 00:16:00,61.4,59.7,30.08,SSE,158,0.0,0.0,94,0.00,,,0.00,WeatherDisplay:10.37,2013-08-19 05:16:00,
2013-08-19 00:21:00,61.5,59.5,30.08,SSE,158,0.0,0.0,93,0.00,,,0.00,WeatherDisplay:10.37,2013-08-19 05:21:00,
2013-08-19 00:26:00,61.4,59.1,30.08,SSE,158,0.0,0.0,92,0.00,,,0.00,WeatherDisplay:10.37,2013-08-19 05:26:00,
2013-08-19 00:31:00,61.0,58.7,30.08,SSE,158,0.0,0.0,92,0.00,,,0.00,WeatherDisplay:10.37,2013-08-19 05:31:00,
2013-08-19 00:36:00,60.7,58.7,30.08,SSE,158,0.0,0.0,93,0.00,,,0.00,WeatherDisplay:10.37,2013-08-19 05:36:00,
2013-08-19 00:41:00,60.4,58.4,30.08,SSE,158,0.0,0.0,93,0.00,,,0.00,WeatherDisplay:10.37,2013-08-19 05:41:00,
2013-08-19 00:46:00,60.3,58.3,30.08,SSE,158,0.0,0.0,93,0.00,,,0.00,WeatherDisplay:10.37,2013-08-19 05:46:00,
2013-08-19 00:51:00,60.3,58.6,30.07,SE,146,0.0,0.0,94,0.00,,,0.00,WeatherDisplay:10.37,2013-08-19 05:51:00,
2013-08-19 00:56:00,60.4,58.7,30.07,SE,144,0.0,0.0,94,0.00,,,0.00,WeatherDisplay:10.37,2013-08-19 05:56:00,
2013-08-19 01:01:00,60.4,58.7,30.07,SE,141,0.0,0.0,94,0.00,,,0.00,WeatherDisplay:10.37,2013-08-19 06:01:00,
2013-08-19 01:06:00,60.5,58.5,30.07,SSE,152,0.0,0.0,93,0.00,,,0.00,WeatherDisplay:10.37,2013-08-19 06:06:00,
2013-08-19 01:11:00,60.7,58.7,30.07,SE,145,0.0,1.1,93,0.00,,,0.00,WeatherDisplay:10.37,2013-08-19 06:11:00,
2013-08-19 01:16:00,60.8,58.8,30.07,SSE,160,0.0,0.0,93,0.00,,,0.00,WeatherDisplay:10.37,2013-08-19 06:16:00,
2013-08-19 01:21:00,60.9,58.9,30.07,SSE,148,0.1,0.0,93,0.00,,,0.00,WeatherDisplay:10.37,2013-08-19 06:21:00,
2013-08-19 01:26:00,60.9,58.6,30.07,SSE,160,0.0,0.0,92,0.00,,,0.00,WeatherDisplay:10.37,2013-08-19 06:26:00,
2013-08-19 01:31:00,60.8,58.5,30.07,SSE,148,0.0,0.0,92,0.00,,,0.00,WeatherDisplay:10.37,2013-08-19 06:31:00,
2013-08-19 01:36:00,60.7,58.4,30.07,SSE,151,0.0,0.0,92,0.00,,,0.00,WeatherDisplay:10.37,2013-08-19 06:36:00,
2013-08-19 01:41:00,60.6,58.3,30.07,SE,135,0.0,0.0,92,0.00,,,0.00,WeatherDisplay:10.37,2013-08-19 06:41:00,
2013-08-19 01:46:00,60.5,58.2,30.07,SE,135,0.0,0.0,92,0.00,,,0.00,WeatherDisplay:10.37,2013-08-19 06:46:00,
2013-08-19 01:51:00,60.6,58.6,30.07,SE,135,0.0,0.0,93,0.00,,,0.00,WeatherDisplay:10.37,2013-08-19 06:51:00,
2013-08-19 01:56:00,60.6,58.6,30.07,SE,135,0.0,0.0,93,0.00,,,0.00,WeatherDisplay:10.37,2013-08-19 06:56:00,
2013-08-19 02:01:00,60.8,58.5,30.07,SE,136,0.0,0.0,92,0.00,,,0.00,WeatherDisplay:10.37,2013-08-19 07:01:00,
2013-08-19 02:06:00,60.9,58.6,30.07,SE,135,0.0,0.0,92,0.00,,,0.00,WeatherDisplay:10.37,2013-08-19 07:06:00,
2013-08-19 02:11:00,60.9,58.6,30.07,SE,135,0.0,0.0,92,0.00,,,0.00,WeatherDisplay:10.37,2013-08-19 07:11:00,
2013-08-19 02:16:00,60.9,58.3,30.07,SE,136,0.0,0.0,91,0.00,,,0.00,WeatherDisplay:10.37,2013-08-19 07:16:00,
2013-08-19 02:21:00,60.8,58.2,30.07,SE,135,0.0,0.0,91,0.00,,,0.00,WeatherDisplay:10.37,2013-08-19 07:21:00,
2013-08-19 02:26:00,60.7,58.1,30.07,SE,135,0.0,0.0,91,0.00,,,0.00,WeatherDisplay:10.37,2013-08-19 07:26:00,
2013-08-19 02:31:00,60.5,57.9,30.07,SE,135,0.0,0.0,91,0.00,,,0.00,WeatherDisplay:10.37,2013-08-19 07:31:00,
2013-08-19 02:36:00,60.2,57.6,30.07,SE,136,0.0,0.0,91,0.00,,,0.00,WeatherDisplay:10.37,2013-08-19 07:36:00,
2013-08-19 02:42:00,60.1,57.8,30.07,SE,135,0.0,0.0,92,0.00,,,0.00,WeatherDisplay:10.37,2013-08-19 07:42:00,
2013-08-19 02:47:00,59.9,57.6,30.07,SE,136,0.0,0.0,92,0.00,,,0.00,WeatherDisplay:10.37,2013-08-19 07:47:00,
2013-08-19 02:52:00,59.9,57.6,30.07,South,177,0.0,0.0,92,0.00,,,0.00,WeatherDisplay:10.37,2013-08-19 07:52:00,
2013-08-19 02:57:00,59.8,57.5,30.07,South,177,0.0,0.0,92,0.00,,,0.00,WeatherDisplay:10.37,2013-08-19 07:57:00,
2013-08-19 03:02:00,59.7,57.7,30.07,South,177,0.0,0.0,93,0.00,,,0.00,WeatherDisplay:10.37,2013-08-19 08:02:00,
2013-08-19 03:07:00,59.7,57.7,30.07,South,177,0.0,0.0,93,0.00,,,0.00,WeatherDisplay:10.37,2013-08-19 08:07:00,
2013-08-19 03:12:00,59.7,57.7,30.07,South,179,0.0,0.0,93,0.00,,,0.00,WeatherDisplay:10.37,2013-08-19 08:12:00,
2013-08-19 03:17:00,59.7,57.4,30.07,South,179,0.0,0.0,92,0.00,,,0.00,WeatherDisplay:10.37,2013-08-19 08:17:00,
2013-08-19 03:22:00,59.8,57.5,30.07,South,179,0.0,0.0,92,0.00,,,0.00,WeatherDisplay:10.37,2013-08-19 08:22:00,
2013-08-19 03:27:00,59.9,57.6,30.07,South,177,0.0,0.0,92,0.00,,,0.00,WeatherDisplay:10.37,2013-08-19 08:27:00,
2013-08-19 03:32:00,59.7,57.1,30.07,South,177,0.0,0.0,91,0.00,,,0.00,WeatherDisplay:10.37,2013-08-19 08:32:00,
2013-08-19 03:37:00,59.4,57.1,30.07,South,177,0.0,0.0,92,0.00,,,0.00,WeatherDisplay:10.37,2013-08-19 08:37:00,
2013-08-19 03:42:00,59.1,56.8,30.07,South,178,0.0,0.0,92,0.00,,,0.00,WeatherDisplay:10.37,2013-08-19 08:42:00,
2013-08-19 03:47:00,58.9,56.9,30.07,South,177,0.0,0.0,93,0.00,,,0.00,WeatherDisplay:10.37,2013-08-19 08:47:00,
2013-08-19 03:52:00,58.7,56.7,30.07,South,177,0.0,0.0,93,0.00,,,0.00,WeatherDisplay:10.37,2013-08-19 08:52:00,
2013-08-19 03:57:00,58.4,56.4,30.07,South,177,0.0,0.0,93,0.00,,,0.00,WeatherDisplay:10.37,2013-08-19 08:57:00,
2013-08-19 04:02:00,58.2,56.2,30.07,South,177,0.0,0.0,93,0.00,,,0.00,WeatherDisplay:10.37,2013-08-19 09:02:00,
2013-08-19 04:07:00,58.0,56.3,30.07,South,177,0.0,0.0,94,0.00,,,0.00,WeatherDisplay:10.37,2013-08-19 09:07:00,
2013-08-19 04:12:00,57.9,56.2,30.07,South,177,0.0,0.0,94,0.00,,,0.00,WeatherDisplay:10.37,2013-08-19 09:12:00,
2013-08-19 04:17:00,57.9,56.2,30.07,South,177,0.0,0.0,94,0.00,,,0.00,WeatherDisplay:10.37,2013-08-19 09:17:00,
2013-08-19 04:22:00,58.0,56.6,30.07,South,177,0.0,0.0,95,0.00,,,0.00,WeatherDisplay:10.37,2013-08-19 09:22:00,
2013-08-19 04:27:00,58.2,56.8,30.07,South,178,0.0,0.0,95,0.00,,,0.00,WeatherDisplay:10.37,2013-08-19 09:27:00,
2013-08-19 04:32:00,58.2,56.5,30.07,South,177,0.0,0.0,94,0.00,,,0.00,WeatherDisplay:10.37,2013-08-19 09:32:00,
2013-08-19 04:37:00,58.0,56.3,30.07,South,177,0.0,0.0,94,0.00,,,0.00,WeatherDisplay:10.37,2013-08-19 09:37:00,
2013-08-19 04:42:00,57.9,56.2,30.07,South,177,0.0,0.0,94,0.00,,,0.00,WeatherDisplay:10.37,2013-08-19 09:42:00,
2013-08-19 04:47:00,57.9,56.5,30.07,South,177,0.0,0.0,95,0.00,,,0.00,WeatherDisplay:10.37,2013-08-19 09:47:00,
2013-08-19 04:52:00,57.9,56.5,30.07,South,178,0.0,0.0,95,0.00,,,0.00,WeatherDisplay:10.37,2013-08-19 09:52:00,
2013-08-19 04:57:00,58.0,56.6,30.07,South,177,0.0,0.0,95,0.00,,,0.00,WeatherDisplay:10.37,2013-08-19 09:57:00,
2013-08-19 05:02:00,58.0,56.3,30.07,South,177,0.0,0.0,94,0.00,,,0.00,WeatherDisplay:10.37,2013-08-19 10:02:00,
2013-08-19 05:07:00,57.8,56.1,30.07,South,177,0.0,0.0,94,0.00,,,0.00,WeatherDisplay:10.37,2013-08-19 10:07:00,
2013-08-19 05:12:00,57.7,56.0,30.07,South,176,0.0,0.0,94,0.00,,,0.00,WeatherDisplay:10.37,2013-08-19 10:12:00,
2013-08-19 05:17:00,57.6,55.9,30.07,South,177,0.0,0.0,94,0.00,,,0.00,WeatherDisplay:10.37,2013-08-19 10:17:00,
2013-08-19 05:22:00,57.5,56.1,30.07,South,177,0.0,0.0,95,0.00,,,0.00,WeatherDisplay:10.37,2013-08-19 10:22:00,
2013-08-19 05:27:00,57.5,56.1,30.07,South,177,0.0,0.0,95,0.00,,,0.00,WeatherDisplay:10.37,2013-08-19 10:27:00,
2013-08-19 05:32:00,57.4,56.0,30.07,South,177,0.0,0.0,95,0.00,,,0.00,WeatherDisplay:10.37,2013-08-19 10:32:00,
2013-08-19 05:37:00,57.4,56.0,30.07,South,178,0.0,0.0,95,0.00,,,0.00,WeatherDisplay:10.37,2013-08-19 10:37:00,
2013-08-19 05:42:00,57.7,56.6,30.07,South,177,0.0,0.0,96,0.00,,,0.00,WeatherDisplay:10.37,2013-08-19 10:42:00,
2013-08-19 05:47:00,57.9,56.5,30.08,South,177,0.0,0.0,95,0.00,,,0.00,WeatherDisplay:10.37,2013-08-19 10:47:00,
2013-08-19 05:52:00,57.8,56.4,30.07,South,177,0.0,0.0,95,0.00,,,0.00,WeatherDisplay:10.37,2013-08-19 10:52:00,
2013-08-19 05:57:00,57.8,56.4,30.08,South,177,0.0,0.0,95,0.00,,,0.00,WeatherDisplay:10.37,2013-08-19 10:57:00,
2013-08-19 06:02:00,57.8,56.4,30.08,South,177,0.0,0.0,95,0.00,CLR,,0.00,WeatherDisplay:10.37,2013-08-19 11:02:00,
2013-08-19 06:07:00,57.6,56.2,30.08,South,177,0.0,0.0,95,0.00,CLR,,0.00,WeatherDisplay:10.37,2013-08-19 11:07:00,
2013-08-19 06:12:00,57.6,56.2,30.08,South,177,0.0,0.0,95,0.00,CLR,,0.00,WeatherDisplay:10.37,2013-08-19 11:12:00,
2013-08-19 06:17:00,57.8,56.7,30.08,South,177,0.0,0.0,96,0.00,CLR,,0.00,WeatherDisplay:10.37,2013-08-19 11:17:00,
2013-08-19 06:22:00,57.8,56.4,30.08,South,177,0.0,0.0,95,0.00,CLR,,0.00,WeatherDisplay:10.37,2013-08-19 11:22:00,
2013-08-19 06:27:00,57.8,56.4,30.08,South,177,0.0,0.0,95,0.00,CLR,,0.00,WeatherDisplay:10.37,2013-08-19 11:27:00,
2013-08-19 06:32:00,58.0,56.6,30.08,South,177,0.0,0.0,95,0.00,CLR,,0.00,WeatherDisplay:10.37,2013-08-19 11:32:00,
2013-08-19 06:37:00,58.2,56.8,30.08,South,177,0.0,0.0,95,0.00,CLR,,0.00,WeatherDisplay:10.37,2013-08-19 11:37:00,
2013-08-19 06:42:00,58.3,56.9,30.08,South,177,0.0,0.0,95,0.00,CLR,,0.00,WeatherDisplay:10.37,2013-08-19 11:42:00,
2013-08-19 06:47:00,58.6,57.5,30.08,South,177,0.0,0.0,96,0.00,CLR,,0.00,WeatherDisplay:10.37,2013-08-19 11:47:00,
2013-08-19 06:52:00,58.9,57.5,30.08,South,177,0.0,0.0,95,0.00,CLR,,0.00,WeatherDisplay:10.37,2013-08-19 11:52:00,
2013-08-19 06:57:00,59.1,57.7,30.08,South,177,0.0,0.0,95,0.00,CLR,,0.00,WeatherDisplay:10.37,2013-08-19 11:57:00,
2013-08-19 07:02:00,59.2,57.5,30.08,South,177,0.0,0.0,94,0.00,CLR,,0.00,WeatherDisplay:10.37,2013-08-19 12:02:00,
2013-08-19 07:07:00,59.5,58.1,30.08,South,177,0.0,0.0,95,0.00,CLR,,0.00,WeatherDisplay:10.37,2013-08-19 12:07:00,
2013-08-19 07:12:00,59.9,58.5,30.08,South,177,0.0,0.0,95,0.00,CLR,,0.00,WeatherDisplay:10.37,2013-08-19 12:12:00,
2013-08-19 07:17:00,60.5,59.1,30.08,South,179,0.0,0.0,95,0.00,CLR,,0.00,WeatherDisplay:10.37,2013-08-19 12:17:00,
2013-08-19 07:22:00,61.3,59.9,30.08,South,179,0.0,0.0,95,0.00,CLR,,0.00,WeatherDisplay:10.37,2013-08-19 12:22:00,
2013-08-19 07:27:00,62.1,60.4,30.08,South,179,0.0,0.0,94,0.00,CLR,,0.00,WeatherDisplay:10.37,2013-08-19 12:27:00,
2013-08-19 07:32:00,62.7,60.6,30.08,South,179,0.0,0.0,93,0.00,CLR,,0.00,WeatherDisplay:10.37,2013-08-19 12:32:00,
2013-08-19 07:37:00,63.2,61.1,30.08,South,179,0.0,0.0,93,0.00,CLR,,0.00,WeatherDisplay:10.37,2013-08-19 12:37:00,
2013-08-19 07:43:00,63.9,61.5,30.08,South,179,0.0,0.0,92,0.00,CLR,,0.00,WeatherDisplay:10.37,2013-08-19 12:43:00,
2013-08-19 07:48:00,64.6,61.9,30.08,South,179,0.0,0.0,91,0.00,CLR,,0.00,WeatherDisplay:10.37,2013-08-19 12:48:00,
2013-08-19 07:53:00,65.1,62.4,30.08,South,179,0.0,0.0,91,0.00,CLR,,0.00,WeatherDisplay:10.37,2013-08-19 12:53:00,
2013-08-19 07:58:00,65.8,62.8,30.08,South,179,0.0,0.0,90,0.00,CLR,,0.00,WeatherDisplay:10.37,2013-08-19 12:58:00,
2013-08-19 08:03:00,66.4,63.4,30.08,South,181,0.0,0.0,90,0.00,CLR,,0.00,WeatherDisplay:10.37,2013-08-19 13:03:00,
2013-08-19 08:08:00,66.8,63.8,30.08,South,187,0.0,0.0,90,0.00,CLR,,0.00,WeatherDisplay:10.37,2013-08-19 13:08:00,
2013-08-19 08:13:00,67.1,63.7,30.09,West,273,0.0,1.1,89,0.00,CLR,,0.00,WeatherDisplay:10.37,2013-08-19 13:13:00,
2013-08-19 08:18:00,67.5,63.8,30.09,West,267,0.2,2.3,88,0.00,CLR,,0.00,WeatherDisplay:10.37,2013-08-19 13:18:00,
2013-08-19 08:23:00,67.9,63.9,30.09,West,265,0.3,2.3,87,0.00,CLR,,0.00,WeatherDisplay:10.37,2013-08-19 13:23:00,
2013-08-19 08:28:00,68.2,64.2,30.09,West,263,1.0,2.3,87,0.00,CLR,,0.00,WeatherDisplay:10.37,2013-08-19 13:28:00,
2013-08-19 08:33:00,68.5,64.8,30.09,West,267,0.1,1.1,88,0.00,CLR,,0.00,WeatherDisplay:10.37,2013-08-19 13:33:00,
2013-08-19 08:38:00,69.0,65.0,30.09,WSW,246,0.3,1.1,87,0.00,CLR,,0.00,WeatherDisplay:10.37,2013-08-19 13:38:00,
2013-08-19 08:43:00,69.5,65.8,30.09,WSW,253,0.1,1.1,88,0.00,CLR,,0.00,WeatherDisplay:10.37,2013-08-19 13:43:00,
2013-08-19 08:48:00,70.0,66.3,30.09,West,273,0.0,2.3,88,0.00,CLR,,0.00,WeatherDisplay:10.37,2013-08-19 13:48:00,
2013-08-19 08:53:00,70.5,66.4,30.09,WSW,253,0.2,2.0,87,0.00,CLR,,0.00,WeatherDisplay:10.37,2013-08-19 13:53:00,
2013-08-19 08:58:00,70.7,66.0,30.09,West,276,0.8,3.5,85,0.00,CLR,,0.00,WeatherDisplay:10.37,2013-08-19 13:58:00,
2013-08-19 09:03:00,71.0,66.3,30.09,WSW,249,1.1,2.3,85,0.00,CLR,,0.00,WeatherDisplay:10.37,2013-08-19 14:03:00,
2013-08-19 09:08:00,71.6,67.2,30.09,WSW,248,0.9,3.0,86,0.00,CLR,,0.00,WeatherDisplay:10.37,2013-08-19 14:08:00,
2013-08-19 09:13:00,72.1,67.3,30.09,WSW,254,1.3,3.0,85,0.00,CLR,,0.00,WeatherDisplay:10.37,2013-08-19 14:13:00,
2013-08-19 09:18:00,72.4,66.9,30.09,West,265,1.8,3.5,83,0.00,CLR,,0.00,WeatherDisplay:10.37,2013-08-19 14:18:00,
2013-08-19 09:23:00,72.8,67.0,30.09,West,260,1.4,2.3,82,0.00,CLR,,0.00,WeatherDisplay:10.37,2013-08-19 14:23:00,
2013-08-19 09:28:00,73.1,67.6,30.09,West,280,1.6,3.5,83,0.00,CLR,,0.00,WeatherDisplay:10.37,2013-08-19 14:28:00,
2013-08-19 09:33:00,73.4,67.6,30.09,West,274,1.7,5.0,82,0.00,CLR,,0.00,WeatherDisplay:10.37,2013-08-19 14:33:00,
2013-08-19 09:38:00,73.7,67.9,30.09,WSW,248,1.5,3.5,82,0.00,CLR,,0.00,WeatherDisplay:10.37,2013-08-19 14:38:00,
2013-08-19 09:43:00,74.0,67.8,30.09,West,269,2.2,3.5,81,0.00,CLR,,0.00,WeatherDisplay:10.37,2013-08-19 14:43:00,
2013-08-19 09:48:00,74.2,68.3,30.09,WSW,238,1.1,3.5,82,0.00,CLR,,0.00,WeatherDisplay:10.37,2013-08-19 14:48:00,
2013-08-19 09:53:00,74.6,68.0,30.09,WSW,246,2.2,3.5,80,0.00,CLR,,0.00,WeatherDisplay:10.37,2013-08-19 14:53:00,
2013-08-19 09:58:00,75.0,68.0,30.09,West,267,3.0,5.0,79,0.00,CLR,,0.00,WeatherDisplay:10.37,2013-08-19 14:58:00,
2013-08-19 10:03:00,75.2,68.2,30.09,West,280,3.0,4.6,79,0.00,CLR,,0.00,WeatherDisplay:10.37,2013-08-19 15:03:00,
2013-08-19 10:08:00,75.5,68.5,30.08,WSW,255,2.1,3.5,79,0.00,CLR,,0.00,WeatherDisplay:10.37,2013-08-19 15:08:00,
2013-08-19 10:13:00,76.0,68.6,30.08,SW,231,3.3,5.8,78,0.00,CLR,,0.00,WeatherDisplay:10.37,2013-08-19 15:13:00,
2013-08-19 10:18:00,76.2,68.1,30.08,SW,233,3.7,5.8,76,0.00,CLR,,0.00,WeatherDisplay:10.37,2013-08-19 15:18:00,
2013-08-19 10:23:00,76.7,69.7,30.08,WSW,249,3.7,4.0,79,0.00,CLR,,0.00,WeatherDisplay:10.37,2013-08-19 15:23:00,
2013-08-19 10:28:00,76.9,68.4,30.08,West,263,4.7,5.8,75,0.00,CLR,,0.00,WeatherDisplay:10.37,2013-08-19 15:28:00,
2013-08-19 10:34:00,77.3,69.5,30.08,West,267,2.4,4.0,77,0.00,CLR,,0.00,WeatherDisplay:10.37,2013-08-19 15:34:00,
2013-08-19 10:39:00,77.8,69.2,30.08,West,274,3.0,3.5,75,0.00,CLR,,0.00,WeatherDisplay:10.37,2013-08-19 15:39:00,
2013-08-19 10:44:00,78.0,69.0,30.08,SW,222,1.5,4.6,74,0.00,CLR,,0.00,WeatherDisplay:10.37,2013-08-19 15:44:00,
2013-08-19 10:49:00,78.5,69.9,30.07,WSW,253,2.2,3.5,75,0.00,CLR,,0.00,WeatherDisplay:10.37,2013-08-19 15:49:00,
2013-08-19 10:54:00,78.5,69.9,30.07,WSW,240,2.3,3.5,75,0.00,CLR,,0.00,WeatherDisplay:10.37,2013-08-19 15:54:00,
2013-08-19 10:59:00,78.6,69.2,30.07,SW,230,2.7,4.6,73,0.00,CLR,,0.00,WeatherDisplay:10.37,2013-08-19 15:59:00,
2013-08-19 11:04:00,78.8,69.8,30.07,West,263,3.2,4.6,74,0.00,CLR,,0.00,WeatherDisplay:10.37,2013-08-19 16:04:00,
2013-08-19 11:09:00,79.0,68.4,30.07,WSW,255,2.8,3.5,70,0.00,CLR,,0.00,WeatherDisplay:10.37,2013-08-19 16:09:00,
2013-08-19 11:14:00,79.4,70.8,30.07,West,267,3.0,4.0,75,0.00,CLR,,0.00,WeatherDisplay:10.37,2013-08-19 16:14:00,
2013-08-19 11:19:00,79.9,69.7,30.07,West,267,4.3,4.6,71,0.00,CLR,,0.00,WeatherDisplay:10.37,2013-08-19 16:19:00,
2013-08-19 11:24:00,80.0,70.2,30.07,WNW,282,2.8,3.5,72,0.00,CLR,,0.00,WeatherDisplay:10.37,2013-08-19 16:24:00,
2013-08-19 11:29:00,80.2,69.9,30.07,SW,215,2.7,3.5,71,0.00,CLR,,0.00,WeatherDisplay:10.37,2013-08-19 16:29:00,
2013-08-19 11:34:00,80.6,69.9,30.07,SW,232,2.3,4.6,70,0.00,CLR,,0.00,WeatherDisplay:10.37,2013-08-19 16:34:00,
2013-08-19 11:39:00,80.7,69.2,30.07,WSW,250,2.4,4.6,68,0.00,CLR,,0.00,WeatherDisplay:10.37,2013-08-19 16:39:00,
2013-08-19 11:45:00,80.3,70.0,30.07,WSW,252,3.6,4.6,71,0.00,CLR,,0.00,WeatherDisplay:10.37,2013-08-19 16:45:00,
2013-08-19 11:50:00,80.3,69.6,30.07,WNW,283,3.8,3.8,70,0.00,CLR,,0.00,WeatherDisplay:10.37,2013-08-19 16:50:00,
2013-08-19 11:55:00,80.2,69.9,30.07,WNW,283,3.1,3.5,71,0.00,CLR,,0.00,WeatherDisplay:10.37,2013-08-19 16:55:00,
2013-08-19 12:00:00,80.4,68.0,30.07,WSW,255,3.3,4.6,66,0.00,CLR,,0.00,WeatherDisplay:10.37,2013-08-19 17:00:00,
2013-08-19 12:05:00,80.7,68.7,30.06,WSW,252,4.2,6.0,67,0.00,CLR,,0.00,WeatherDisplay:10.37,2013-08-19 17:05:00,
2013-08-19 12:10:00,80.9,68.9,30.06,WSW,257,2.5,3.5,67,0.00,CLR,,0.00,WeatherDisplay:10.37,2013-08-19 17:10:00,
2013-08-19 12:15:00,80.7,68.7,30.06,SSW,205,2.6,3.5,67,0.00,CLR,,0.00,WeatherDisplay:10.37,2013-08-19 17:15:00,
2013-08-19 12:20:00,81.2,67.9,30.06,SSW,210,0.6,3.5,64,0.00,CLR,,0.00,WeatherDisplay:10.37,2013-08-19 17:20:00,
2013-08-19 12:25:00,82.1,70.1,30.06,South,187,2.4,3.5,67,0.00,CLR,,0.00,WeatherDisplay:10.37,2013-08-19 17:25:00,
2013-08-19 12:30:00,82.3,70.7,30.06,West,281,3.3,4.0,68,0.00,CLR,,0.00,WeatherDisplay:10.37,2013-08-19 17:30:00,
2013-08-19 12:35:00,81.7,69.2,30.06,West,281,3.3,3.5,66,0.00,CLR,,0.00,WeatherDisplay:10.37,2013-08-19 17:35:00,
2013-08-19 12:40:00,81.7,68.8,30.06,West,276,3.2,5.0,65,0.00,CLR,,0.00,WeatherDisplay:10.37,2013-08-19 17:40:00,
2013-08-19 12:45:00,81.9,69.9,30.06,SSE,160,0.0,1.1,67,0.00,CLR,,0.00,WeatherDisplay:10.37,2013-08-19 17:45:00,
2013-08-19 12:50:00,81.9,68.5,30.06,West,264,2.5,3.5,64,0.00,CLR,,0.00,WeatherDisplay:10.37,2013-08-19 17:50:00,
2013-08-19 12:55:00,81.6,68.2,30.06,West,271,2.0,4.6,64,0.00,CLR,,0.00,WeatherDisplay:10.37,2013-08-19 17:55:00,
2013-08-19 13:00:00,81.9,68.1,30.05,SW,229,2.3,3.5,63,0.00,CLR,,0.00,WeatherDisplay:10.37,2013-08-19 18:00:00,
2013-08-19 13:05:00,82.1,69.6,30.05,WSW,248,2.0,4.0,66,0.00,CLR,,0.00,WeatherDisplay:10.37,2013-08-19 18:05:00,
2013-08-19 13:10:00,81.6,67.8,30.05,West,259,2.0,5.0,63,0.00,CLR,,0.00,WeatherDisplay:10.37,2013-08-19 18:10:00,
2013-08-19 13:15:00,82.4,69.9,30.05,WSW,252,3.0,7.0,66,0.00,CLR,,0.00,WeatherDisplay:10.37,2013-08-19 18:15:00,
2013-08-19 13:20:00,82.4,69.0,30.05,WSW,243,1.8,3.5,64,0.00,CLR,,0.00,WeatherDisplay:10.37,2013-08-19 18:20:00,
2013-08-19 13:25:00,82.0,67.7,30.05,SW,233,1.3,3.5,62,0.00,CLR,,0.00,WeatherDisplay:10.37,2013-08-19 18:25:00,
2013-08-19 13:30:00,82.0,68.2,30.05,SW,224,1.2,3.5,63,0.00,CLR,,0.00,WeatherDisplay:10.37,2013-08-19 18:30:00,
2013-08-19 13:35:00,82.6,68.7,30.05,SSW,198,2.0,4.0,63,0.00,CLR,,0.00,WeatherDisplay:10.37,2013-08-19 18:35:00,
2013-08-19 13:40:00,82.8,68.9,30.05,SSW,211,2.0,5.0,63,0.00,CLR,,0.00,WeatherDisplay:10.37,2013-08-19 18:40:00,
2013-08-19 13:45:00,82.6,68.7,30.04,SW,218,2.0,4.0,63,0.00,CLR,,0.00,WeatherDisplay:10.37,2013-08-19 18:45:00,
2013-08-19 13:50:00,83.0,69.6,30.04,West,276,2.4,7.0,64,0.00,CLR,,0.00,WeatherDisplay:10.37,2013-08-19 18:50:00,
2013-08-19 13:55:00,82.8,69.8,30.04,WSW,241,3.0,7.0,65,0.00,CLR,,0.00,WeatherDisplay:10.37,2013-08-19 18:55:00,
2013-08-19 14:00:00,82.4,68.1,30.04,WNW,284,1.9,3.5,62,0.00,CLR,,0.00,WeatherDisplay:10.37,2013-08-19 19:00:00,
2013-08-19 14:05:00,82.0,68.2,30.04,WSW,247,3.0,5.0,63,0.00,CLR,,0.00,WeatherDisplay:10.37,2013-08-19 19:05:00,
2013-08-19 14:10:00,82.7,69.2,30.04,WSW,247,3.0,6.0,64,0.00,CLR,,0.00,WeatherDisplay:10.37,2013-08-19 19:10:00,
2013-08-19 14:15:00,82.0,68.6,30.04,SW,222,1.0,8.0,64,0.00,CLR,,0.00,WeatherDisplay:10.37,2013-08-19 19:15:00,
2013-08-19 14:20:00,82.9,69.5,30.03,WSW,248,3.6,5.0,64,0.00,CLR,,0.00,WeatherDisplay:10.37,2013-08-19 19:20:00,
2013-08-19 14:25:00,83.0,68.2,30.03,WSW,241,3.0,9.0,61,0.00,CLR,,0.00,WeatherDisplay:10.37,2013-08-19 19:25:00,
2013-08-19 14:30:00,83.3,68.0,30.03,SE,129,3.4,7.0,60,0.00,CLR,,0.00,WeatherDisplay:10.37,2013-08-19 19:30:00,
2013-08-19 14:35:00,83.8,68.9,30.03,SW,215,3.0,8.0,61,0.00,CLR,,0.00,WeatherDisplay:10.37,2013-08-19 19:35:00,
2013-08-19 14:40:00,84.0,69.6,30.03,SW,224,2.0,6.0,62,0.00,CLR,,0.00,WeatherDisplay:10.37,2013-08-19 19:40:00,
2013-08-19 14:45:00,83.6,68.7,30.03,SW,224,2.9,5.8,61,0.00,CLR,,0.00,WeatherDisplay:10.37,2013-08-19 19:45:00,
2013-08-19 14:50:00,83.8,67.9,30.03,SW,232,3.0,6.9,59,0.00,CLR,,0.00,WeatherDisplay:10.37,2013-08-19 19:50:00,
2013-08-19 14:55:00,84.0,68.1,30.03,SW,228,3.0,7.0,59,0.00,CLR,,0.00,WeatherDisplay:10.37,2013-08-19 19:55:00,
2013-08-19 15:00:00,83.9,68.5,30.02,SW,226,3.0,8.0,60,0.00,CLR,,0.00,WeatherDisplay:10.37,2013-08-19 20:00:00,
2013-08-19 15:05:00,84.1,68.7,30.02,SW,231,3.0,6.0,60,0.00,CLR,,0.00,WeatherDisplay:10.37,2013-08-19 20:05:00,
2013-08-19 15:10:00,83.9,68.5,30.02,SW,226,1.7,3.5,60,0.00,CLR,,0.00,WeatherDisplay:10.37,2013-08-19 20:10:00,
2013-08-19 15:15:00,83.7,69.3,30.02,SW,217,2.7,4.6,62,0.00,CLR,,0.00,WeatherDisplay:10.37,2013-08-19 20:15:00,
2013-08-19 15:20:00,83.5,68.6,30.02,SSE,163,2.4,3.5,61,0.00,CLR,,0.00,WeatherDisplay:10.37,2013-08-19 20:20:00,
2013-08-19 15:25:00,83.4,68.1,30.02,SW,226,2.7,3.5,60,0.00,CLR,,0.00,WeatherDisplay:10.37,2013-08-19 20:25:00,
2013-08-19 15:30:00,83.9,69.5,30.01,SW,214,5.0,8.0,62,0.00,CLR,,0.00,WeatherDisplay:10.37,2013-08-19 20:30:00,
2013-08-19 15:35:00,83.9,68.0,30.01,WSW,238,3.7,6.0,59,0.00,CLR,,0.00,WeatherDisplay:10.37,2013-08-19 20:35:00,
2013-08-19 15:40:00,83.3,68.0,30.01,SSW,206,1.0,6.0,60,0.00,CLR,,0.00,WeatherDisplay:10.37,2013-08-19 20:40:00,
2013-08-19 15:45:00,83.3,68.4,30.01,SW,216,3.0,7.0,61,0.00,CLR,,0.00,WeatherDisplay:10.37,2013-08-19 20:45:00,
2013-08-19 15:50:00,83.4,67.6,30.01,SSW,211,4.0,7.0,59,0.00,CLR,,0.00,WeatherDisplay:10.37,2013-08-19 20:50:00,
2013-08-19 15:55:00,83.1,68.2,30.01,SW,220,2.0,7.0,61,0.00,CLR,,0.00,WeatherDisplay:10.37,2013-08-19 20:55:00,
2013-08-19 16:00:00,82.5,68.2,30.01,SSW,205,2.0,5.0,62,0.00,CLR,,0.00,WeatherDisplay:10.37,2013-08-19 21:00:00,
2013-08-19 16:05:00,82.3,68.4,30.01,South,185,1.0,6.0,63,0.00,CLR,,0.00,WeatherDisplay:10.37,2013-08-19 21:05:00,
2013-08-19 16:10:00,82.6,68.7,30.01,WSW,238,0.5,2.3,63,0.00,CLR,,0.00,WeatherDisplay:10.37,2013-08-19 21:10:00,
2013-08-19 16:15:00,82.6,69.2,30.01,SSW,211,1.5,4.0,64,0.00,CLR,,0.00,WeatherDisplay:10.37,2013-08-19 21:15:00,
2013-08-19 16:20:00,82.3,68.9,30.01,SSW,212,0.8,2.3,64,0.00,CLR,,0.00,WeatherDisplay:10.37,2013-08-19 21:20:00,
2013-08-19 16:25:00,81.9,68.5,30.01,SW,232,1.0,3.0,64,0.00,CLR,,0.00,WeatherDisplay:10.37,2013-08-19 21:25:00,
2013-08-19 16:30:00,81.4,68.5,30.01,WSW,240,0.4,2.3,65,0.00,CLR,,0.00,WeatherDisplay:10.37,2013-08-19 21:30:00,
2013-08-19 16:35:00,81.2,69.6,30.01,WSW,240,0.2,1.1,68,0.00,CLR,,0.00,WeatherDisplay:10.37,2013-08-19 21:35:00,
2013-08-19 16:40:00,80.9,69.3,30.00,WSW,238,1.0,7.0,68,0.00,CLR,,0.00,WeatherDisplay:10.37,2013-08-19 21:40:00,
2013-08-19 16:45:00,80.8,70.1,30.00,SW,230,0.5,2.3,70,0.00,CLR,,0.00,WeatherDisplay:10.37,2013-08-19 21:45:00,
2013-08-19 16:50:00,80.9,70.2,30.00,SSW,207,0.2,1.1,70,0.00,CLR,,0.00,WeatherDisplay:10.37,2013-08-19 21:50:00,
2013-08-19 16:55:00,81.0,70.3,30.00,WSW,252,0.2,1.1,70,0.00,CLR,,0.00,WeatherDisplay:10.37,2013-08-19 21:55:00,
2013-08-19 17:00:00,81.8,71.1,30.00,SSW,198,0.0,1.0,70,0.00,CLR,,0.00,WeatherDisplay:10.37,2013-08-19 22:00:00,
2013-08-19 17:05:00,82.8,70.7,30.00,SSW,193,0.0,2.0,67,0.00,CLR,,0.00,WeatherDisplay:10.37,2013-08-19 22:05:00,
2013-08-19 17:10:00,83.5,70.0,30.00,SSE,167,0.6,2.3,64,0.00,CLR,,0.00,WeatherDisplay:10.37,2013-08-19 22:10:00,
2013-08-19 17:15:00,83.4,69.0,30.00,West,263,2.4,4.6,62,0.00,CLR,,0.00,WeatherDisplay:10.37,2013-08-19 22:15:00,
2013-08-19 17:20:00,83.3,68.9,30.00,SW,233,3.0,5.0,62,0.00,CLR,,0.00,WeatherDisplay:10.37,2013-08-19 22:20:00,
2013-08-19 17:25:00,83.0,68.2,30.00,SSW,212,3.2,4.6,61,0.00,CLR,,0.00,WeatherDisplay:10.37,2013-08-19 22:25:00,
2013-08-19 17:30:00,83.1,68.7,30.00,WSW,240,1.9,3.5,62,0.00,CLR,,0.00,WeatherDisplay:10.37,2013-08-19 22:30:00,
2013-08-19 17:35:00,83.0,69.1,30.00,SSW,212,1.3,3.5,63,0.00,CLR,,0.00,WeatherDisplay:10.37,2013-08-19 22:35:00,
2013-08-19 17:40:00,83.0,69.6,30.00,SW,228,1.6,3.5,64,0.00,CLR,,0.00,WeatherDisplay:10.37,2013-08-19 22:40:00,
2013-08-19 17:45:00,82.8,68.9,30.00,WSW,246,2.1,3.5,63,0.00,CLR,,0.00,WeatherDisplay:10.37,2013-08-19 22:45:00,
2013-08-19 17:50:00,82.8,70.3,30.00,WSW,249,0.1,1.1,66,0.00,CLR,,0.00,WeatherDisplay:10.37,2013-08-19 22:50:00,
2013-08-19 17:55:00,83.0,70.0,30.00,WSW,240,0.9,2.3,65,0.00,CLR,,0.00,WeatherDisplay:10.37,2013-08-19 22:55:00,
2013-08-19 18:00:00,82.7,69.7,30.00,WSW,241,1.5,3.5,65,0.00,CLR,,0.00,WeatherDisplay:10.37,2013-08-19 23:00:00,
2013-08-19 18:05:00,82.4,69.4,30.00,West,264,0.7,2.3,65,0.00,CLR,,0.00,WeatherDisplay:10.37,2013-08-19 23:05:00,
2013-08-19 18:10:00,82.1,69.6,30.00,WSW,239,0.4,2.3,66,0.00,CLR,,0.00,WeatherDisplay:10.37,2013-08-19 23:10:00,
2013-08-19 18:15:00,81.7,69.2,29.99,SW,222,1.3,2.0,66,0.00,CLR,,0.00,WeatherDisplay:10.37,2013-08-19 23:15:00,
2013-08-19 18:21:00,80.9,69.3,29.99,SW,232,0.3,1.1,68,0.00,CLR,,0.00,WeatherDisplay:10.37,2013-08-19 23:21:00,
2013-08-19 18:26:00,80.4,69.7,29.99,SW,225,0.5,1.1,70,0.00,CLR,,0.00,WeatherDisplay:10.37,2013-08-19 23:26:00,
2013-08-19 18:31:00,79.9,69.7,29.99,SW,222,0.3,1.1,71,0.00,CLR,,0.00,WeatherDisplay:10.37,2013-08-19 23:31:00,
2013-08-19 18:36:00,79.4,69.6,29.99,SW,220,0.0,1.1,72,0.00,CLR,,0.00,WeatherDisplay:10.37,2013-08-19 23:36:00,
2013-08-19 18:41:00,78.8,69.4,29.99,SW,225,0.0,1.1,73,0.00,CLR,,0.00,WeatherDisplay:10.37,2013-08-19 23:41:00,
2013-08-19 18:46:00,78.4,69.4,29.99,SW,217,0.1,1.1,74,0.00,CLR,,0.00,WeatherDisplay:10.37,2013-08-19 23:46:00,
2013-08-19 18:51:00,78.0,69.4,29.99,SW,221,0.1,1.1,75,0.00,CLR,,0.00,WeatherDisplay:10.37,2013-08-19 23:51:00,
2013-08-19 18:56:00,77.7,69.1,29.99,SSW,207,0.0,1.1,75,0.00,CLR,,0.00,WeatherDisplay:10.37,2013-08-19 23:56:00,
2013-08-19 19:01:00,77.6,69.0,29.99,SSW,205,0.0,0.0,75,0.00,CLR,,0.00,WeatherDisplay:10.37,2013-08-20 00:01:00,
2013-08-19 19:06:00,77.5,69.3,29.99,SSW,205,0.0,0.0,76,0.00,CLR,,0.00,WeatherDisplay:10.37,2013-08-20 00:06:00,
2013-08-19 19:11:00,77.2,69.4,29.99,SSW,205,0.0,0.0,77,0.00,CLR,,0.00,WeatherDisplay:10.37,2013-08-20 00:11:00,
2013-08-19 19:16:00,76.8,69.0,29.99,SSW,205,0.0,0.0,77,0.00,CLR,,0.00,WeatherDisplay:10.37,2013-08-20 00:16:00,
2013-08-19 19:21:00,76.3,68.9,29.99,SSW,205,0.0,0.0,78,0.00,CLR,,0.00,WeatherDisplay:10.37,2013-08-20 00:21:00,
2013-08-19 19:26:00,75.8,68.8,29.99,SSW,201,0.0,0.0,79,0.00,CLR,,0.00,WeatherDisplay:10.37,2013-08-20 00:26:00,
2013-08-19 19:31:00,75.1,68.5,29.99,SE,143,0.2,1.1,80,0.00,CLR,,0.00,WeatherDisplay:10.37,2013-08-20 00:31:00,
2013-08-19 19:36:00,74.4,68.5,29.99,SE,143,0.1,1.1,82,0.00,CLR,,0.00,WeatherDisplay:10.37,2013-08-20 00:36:00,
2013-08-19 19:41:00,73.7,68.6,29.99,SE,144,0.0,0.0,84,0.00,CLR,,0.00,WeatherDisplay:10.37,2013-08-20 00:41:00,
2013-08-19 19:46:00,73.1,68.3,29.99,SE,143,0.0,1.1,85,0.00,CLR,,0.00,WeatherDisplay:10.37,2013-08-20 00:46:00,
2013-08-19 19:51:00,72.5,68.1,29.99,SE,143,0.1,1.1,86,0.00,CLR,,0.00,WeatherDisplay:10.37,2013-08-20 00:51:00,
2013-08-19 19:56:00,72.0,67.9,29.98,SE,143,0.0,0.0,87,0.00,CLR,,0.00,WeatherDisplay:10.37,2013-08-20 00:56:00,
2013-08-19 20:01:00,71.6,67.9,29.98,SE,143,0.0,1.1,88,0.00,,,0.00,WeatherDisplay:10.37,2013-08-20 01:01:00,
2013-08-19 20:06:00,71.2,67.5,29.99,SE,144,0.0,0.0,88,0.00,,,0.00,WeatherDisplay:10.37,2013-08-20 01:06:00,
2013-08-19 20:11:00,70.9,67.2,29.99,SE,144,0.0,0.0,88,0.00,,,0.00,WeatherDisplay:10.37,2013-08-20 01:11:00,
2013-08-19 20:16:00,70.5,67.1,29.99,SE,143,0.0,0.0,89,0.00,,,0.00,WeatherDisplay:10.37,2013-08-20 01:16:00,
2013-08-19 20:22:00,70.1,67.0,29.99,SE,143,0.0,0.0,90,0.00,,,0.00,WeatherDisplay:10.37,2013-08-20 01:22:00,
2013-08-19 20:27:00,69.7,66.6,29.99,SE,143,0.0,0.0,90,0.00,,,0.00,WeatherDisplay:10.37,2013-08-20 01:27:00,
2013-08-19 20:32:00,69.4,66.3,30.00,SE,143,0.0,0.0,90,0.00,,,0.00,WeatherDisplay:10.37,2013-08-20 01:32:00,
2013-08-19 20:37:00,69.1,66.4,30.00,SSE,153,0.0,0.0,91,0.00,,,0.00,WeatherDisplay:10.37,2013-08-20 01:37:00,
2013-08-19 20:42:00,68.8,66.1,30.00,SSE,153,0.0,0.0,91,0.00,,,0.00,WeatherDisplay:10.37,2013-08-20 01:42:00,
2013-08-19 20:47:00,68.5,65.8,30.00,SE,146,0.0,0.0,91,0.00,,,0.00,WeatherDisplay:10.37,2013-08-20 01:47:00,
2013-08-19 20:52:00,68.3,65.9,30.00,SE,146,0.0,0.0,92,0.00,,,0.00,WeatherDisplay:10.37,2013-08-20 01:52:00,
2013-08-19 20:57:00,68.1,65.7,30.00,SE,145,0.0,0.0,92,0.00,,,0.00,WeatherDisplay:10.37,2013-08-20 01:57:00,
2013-08-19 21:02:00,67.9,65.5,30.00,SE,146,0.0,0.0,92,0.00,,,0.00,WeatherDisplay:10.37,2013-08-20 02:02:00,
2013-08-19 21:07:00,67.7,65.3,30.00,SE,145,0.0,1.1,92,0.00,,,0.00,WeatherDisplay:10.37,2013-08-20 02:07:00,
2013-08-19 21:12:00,67.5,65.1,30.00,SE,143,0.0,0.0,92,0.00,,,0.00,WeatherDisplay:10.37,2013-08-20 02:12:00,
2013-08-19 21:17:00,67.4,65.0,30.01,SE,142,0.1,0.0,92,0.00,,,0.00,WeatherDisplay:10.37,2013-08-20 02:17:00,
2013-08-19 21:22:00,67.3,64.9,30.01,SE,143,0.0,0.0,92,0.00,,,0.00,WeatherDisplay:10.37,2013-08-20 02:22:00,
2013-08-19 21:27:00,67.2,64.8,30.01,SE,142,0.0,1.1,92,0.00,,,0.00,WeatherDisplay:10.37,2013-08-20 02:27:00,
2013-08-19 21:32:00,67.1,64.7,30.01,SE,145,0.0,0.0,92,0.00,,,0.00,WeatherDisplay:10.37,2013-08-20 02:32:00,
2013-08-19 21:37:00,66.9,64.5,30.01,SSE,148,0.0,1.1,92,0.00,,,0.00,WeatherDisplay:10.37,2013-08-20 02:37:00,
2013-08-19 21:42:00,66.8,64.7,30.01,SSE,148,0.0,0.0,93,0.00,,,0.00,WeatherDisplay:10.37,2013-08-20 02:42:00,
2013-08-19 21:47:00,66.7,64.6,30.01,SE,143,0.0,0.0,93,0.00,,,0.00,WeatherDisplay:10.37,2013-08-20 02:47:00,
2013-08-19 21:52:00,66.6,64.5,30.01,SE,144,0.1,1.1,93,0.00,,,0.00,WeatherDisplay:10.37,2013-08-20 02:52:00,
2013-08-19 21:57:00,66.5,64.4,30.01,SE,136,0.0,1.1,93,0.00,,,0.00,WeatherDisplay:10.37,2013-08-20 02:57:00,
2013-08-19 22:02:00,66.5,64.4,30.01,SE,146,0.0,0.0,93,0.00,,,0.00,WeatherDisplay:10.37,2013-08-20 03:02:00,
2013-08-19 22:07:00,66.4,64.3,30.01,SSE,152,0.0,0.0,93,0.00,,,0.00,WeatherDisplay:10.37,2013-08-20 03:07:00,
2013-08-19 22:12:00,66.3,64.2,30.01,SSE,149,0.0,0.0,93,0.00,,,0.00,WeatherDisplay:10.37,2013-08-20 03:12:00,
2013-08-19 22:17:00,66.2,64.1,30.01,SSE,150,0.0,0.0,93,0.00,,,0.00,WeatherDisplay:10.37,2013-08-20 03:17:00,
2013-08-19 22:22:00,66.1,64.0,30.01,SE,139,0.0,0.0,93,0.00,,,0.00,WeatherDisplay:10.37,2013-08-20 03:22:00,
2013-08-19 22:27:00,66.0,63.9,30.01,SSE,148,0.1,1.1,93,0.00,,,0.00,WeatherDisplay:10.37,2013-08-20 03:27:00,
2013-08-19 22:32:00,65.9,63.8,30.01,SE,138,0.0,0.0,93,0.00,,,0.00,WeatherDisplay:10.37,2013-08-20 03:32:00,
2013-08-19 22:37:00,65.8,64.0,30.01,SSE,152,0.0,0.0,94,0.00,,,0.00,WeatherDisplay:10.37,2013-08-20 03:37:00,
2013-08-19 22:42:00,65.8,64.0,30.01,SSE,148,0.1,1.1,94,0.00,,,0.00,WeatherDisplay:10.37,2013-08-20 03:42:00,
2013-08-19 22:47:00,65.8,64.0,30.01,SSE,158,0.0,0.0,94,0.00,,,0.00,WeatherDisplay:10.37,2013-08-20 03:47:00,
2013-08-19 22:52:00,65.7,63.9,30.01,SE,134,0.0,0.0,94,0.00,,,0.00,WeatherDisplay:10.37,2013-08-20 03:52:00,
2013-08-19 22:57:00,65.6,63.8,30.01,SSE,148,0.0,0.0,94,0.00,,,0.00,WeatherDisplay:10.37,2013-08-20 03:57:00,
2013-08-19 23:01:00,65.5,63.7,30.01,SE,144,0.1,1.1,94,0.00,,,0.00,WeatherDisplay:10.37,2013-08-20 04:01:00,
2013-08-19 23:06:00,65.4,63.6,30.01,SE,139,0.1,1.1,94,0.00,,,0.00,WeatherDisplay:10.37,2013-08-20 04:06:00,
2013-08-19 23:11:00,65.4,63.6,30.01,SE,141,0.0,0.0,94,0.00,,,0.00,WeatherDisplay:10.37,2013-08-20 04:11:00,
2013-08-19 23:16:00,65.4,63.6,30.00,SE,138,0.0,0.0,94,0.00,,,0.00,WeatherDisplay:10.37,2013-08-20 04:16:00,
2013-08-19 23:21:00,65.4,63.6,30.01,SSE,148,0.2,1.1,94,0.00,,,0.00,WeatherDisplay:10.37,2013-08-20 04:21:00,
2013-08-19 23:26:00,65.4,63.6,30.00,SE,136,0.0,1.1,94,0.00,,,0.00,WeatherDisplay:10.37,2013-08-20 04:26:00,
2013-08-19 23:31:00,65.4,63.6,30.01,SSE,156,0.1,1.1,94,0.00,,,0.00,WeatherDisplay:10.37,2013-08-20 04:31:00,
2013-08-19 23:36:00,65.5,63.7,30.01,South,184,0.1,1.1,94,0.00,,,0.00,WeatherDisplay:10.37,2013-08-20 04:36:00,
2013-08-19 23:41:00,65.5,63.7,30.01,SSE,158,0.0,0.0,94,0.00,,,0.00,WeatherDisplay:10.37,2013-08-20 04:41:00,
2013-08-19 23:46:00,65.4,63.6,30.01,SSE,165,0.0,0.0,94,0.00,,,0.00,WeatherDisplay:10.37,2013-08-20 04:46:00,
2013-08-19 23:51:00,65.4,63.6,30.00,SSE,148,0.1,1.1,94,0.00,,,0.00,WeatherDisplay:10.37,2013-08-20 04:51:00,
2013-08-19 23:56:00,65.4,63.6,30.00,SE,141,0.0,1.1,94,0.00,,,0.00,WeatherDisplay:10.37,2013-08-20 04:56:00,